| time (UTC) | temp F | wind direction | speed knots | gust knots | rain 1hr in | rain 24hr in | rain mn in | humidity % | barometer mb |
| 20260906052123 | 83 | 96 | 3.5 | 8.7 | 0.00 | 0.00 | 0.00 | 77 | 1014.3 |
| 20260906051624 | 83 | 116 | 3.5 | 9.6 | 0.00 | 0.00 | 0.00 | 77 | 1014.3 |
| 20260906051124 | 83 | 133 | 5.2 | 9.6 | 0.00 | 0.00 | 0.00 | 77 | 1014.2 |
| 20260906050623 | 83 | 105 | 4.3 | 8.7 | 0.00 | 0.00 | 0.00 | 76 | 1014.3 |
| 20260906050124 | 83 | 115 | 4.3 | 9.6 | 0.00 | 0.00 | 0.00 | 76 | 1014.3 |
| 20260906045623 | 83 | 113 | 4.3 | 9.6 | 0.00 | 0.00 | 0.00 | 76 | 1014.3 |
| 20260906045123 | 83 | 117 | 4.3 | 8.7 | 0.00 | 0.00 | 0.00 | 76 | 1014.3 |
| 20260906044623 | 83 | 93 | 5.2 | 9.6 | 0.00 | 0.00 | 0.00 | 76 | 1014.3 |
| 20260906043122 | 83 | 117 | 4.3 | 9.6 | 0.00 | 0.00 | 0.00 | 75 | 1014.3 |
| 20260906042623 | 83 | 178 | 4.3 | 9.6 | 0.00 | 0.00 | 0.00 | 75 | 1014.3 |
| 20260906042122 | 84 | 140 | 3.5 | 7.8 | 0.00 | 0.00 | 0.00 | 74 | 1014.4 |
| 20260906041622 | 84 | 141 | 3.5 | 7.8 | 0.00 | 0.00 | 0.00 | 74 | 1014.5 |
| 20260906041121 | 84 | 137 | 1.7 | 9.6 | 0.00 | 0.00 | 0.00 | 74 | 1014.6 |
| 20260906040621 | 84 | 119 | 4.3 | 9.6 | 0.00 | 0.00 | 0.00 | 75 | 1014.4 |
| 20260906040122 | 84 | 123 | 3.5 | 8.7 | 0.00 | 0.00 | 0.00 | 75 | 1014.3 |
| 20260906035122 | 84 | 123 | 3.5 | 7.0 | 0.00 | 0.00 | 0.00 | 75 | 1014.3 |
| 20260906034620 | 84 | 325 | 2.6 | 7.0 | 0.00 | 0.00 | 0.00 | 75 | 1014.4 |
| 20260906034123 | 84 | 139 | 2.6 | 7.0 | 0.00 | 0.00 | 0.00 | 75 | 1014.3 |
| 20260906033621 | 84 | 98 | 2.6 | 6.1 | 0.00 | 0.00 | 0.00 | 75 | 1014.3 |
| 20260906033121 | 84 | 126 | 1.7 | 6.1 | 0.00 | 0.00 | 0.00 | 75 | 1014.3 |
| 20260906031620 | 84 | 113 | 2.6 | 5.2 | 0.00 | 0.00 | 0.00 | 75 | 1014.2 |
| 20260906031120 | 85 | 137 | 2.6 | 5.2 | 0.00 | 0.00 | 0.00 | 75 | 1014.2 |
| 20260906030620 | 85 | 106 | 1.7 | 7.0 | 0.00 | 0.00 | 0.00 | 75 | 1014.1 |
| 20260906030120 | 85 | 126 | 2.6 | 7.0 | 0.00 | 0.00 | 0.00 | 74 | 1014.0 |
| 20260906025620 | 85 | 110 | 2.6 | 7.8 | 0.00 | 0.00 | 0.00 | 74 | 1014.0 |
| 20260906025119 | 85 | 121 | 3.5 | 8.7 | 0.00 | 0.00 | 0.00 | 74 | 1013.8 |
| 20260906024619 | 85 | 126 | 3.5 | 8.7 | 0.00 | 0.00 | 0.00 | 74 | 1013.8 |
| 20260906023119 | 85 | 108 | 5.2 | 8.7 | 0.00 | 0.00 | 0.00 | 74 | 1013.5 |
| 20260906022118 | 85 | 126 | 2.6 | 7.8 | 0.00 | 0.00 | 0.00 | 74 | 1013.6 |
| 20260906021618 | 85 | 123 | 3.5 | 7.8 | 0.00 | 0.00 | 0.00 | 73 | 1013.5 |
| 20260906021118 | 86 | 153 | 2.6 | 7.0 | 0.00 | 0.00 | 0.00 | 73 | 1013.4 |
| 20260906020618 | 86 | 115 | 1.7 | 6.1 | 0.00 | 0.00 | 0.00 | 73 | 1013.4 |
| 20260906020118 | 86 | 119 | 2.6 | 7.8 | 0.00 | 0.00 | 0.00 | 72 | 1013.3 |
| 20260906015618 | 86 | 61 | 3.5 | 7.8 | 0.00 | 0.00 | 0.00 | 72 | 1013.1 |
| 20260906015117 | 86 | 109 | 2.6 | 5.2 | 0.00 | 0.00 | 0.00 | 72 | 1013.0 |
| 20260906014617 | 86 | 93 | 1.7 | 6.1 | 0.00 | 0.00 | 0.00 | 72 | 1013.0 |
| 20260906014118 | 86 | 98 | 2.6 | 6.1 | 0.00 | 0.00 | 0.00 | 71 | 1013.0 |
| 20260906013617 | 86 | 117 | 3.5 | 6.1 | 0.00 | 0.00 | 0.00 | 71 | 1012.8 |
| 20260906013117 | 87 | 111 | 2.6 | 5.2 | 0.00 | 0.00 | 0.00 | 70 | 1012.7 |
| 20260906012116 | 87 | 134 | 1.7 | 6.1 | 0.00 | 0.00 | 0.00 | 69 | 1012.6 |
| 20260906011617 | 87 | 51 | 1.7 | 6.1 | 0.00 | 0.00 | 0.00 | 69 | 1012.6 |
| 20260906010615 | 88 | 137 | 2.6 | 6.1 | 0.00 | 0.00 | 0.00 | 68 | 1012.5 |
| 20260906005615 | 88 | 93 | 1.7 | 7.8 | 0.00 | 0.00 | 0.00 | 67 | 1012.5 |
| 20260906005115 | 88 | 99 | 5.2 | 9.6 | 0.00 | 0.00 | 0.00 | 67 | 1012.5 |
| 20260906004615 | 88 | 107 | 6.1 | 9.6 | 0.00 | 0.00 | 0.00 | 67 | 1012.4 |
| 20260906003114 | 89 | 132 | 2.6 | 9.6 | 0.00 | 0.00 | 0.00 | 65 | 1012.5 |
| 20260906002613 | 89 | 126 | 2.6 | 10.4 | 0.00 | 0.00 | 0.00 | 65 | 1012.6 |
| 20260906002113 | 89 | 115 | 5.2 | 10.4 | 0.00 | 0.00 | 0.00 | 64 | 1012.4 |
| 20260906001613 | 90 | 139 | 5.2 | 13.0 | 0.00 | 0.00 | 0.00 | 64 | 1012.3 |
| 20260906001112 | 90 | 97 | 7.0 | 13.0 | 0.00 | 0.00 | 0.00 | 63 | 1012.2 |
| 20260906000612 | 90 | 123 | 7.8 | 12.2 | 0.00 | 0.00 | 0.00 | 63 | 1012.2 |
| 20260906000112 | 91 | 102 | 6.1 | 11.3 | 0.00 | 0.00 | 0.00 | 63 | 1012.2 |
| 20260905235113 | 91 | 117 | 7.0 | 12.2 | 0.00 | 0.00 | 0.00 | 61 | 1012.1 |
| 20260905234612 | 92 | 121 | 3.5 | 9.6 | 0.00 | 0.00 | 0.00 | 61 | 1012.1 |
| 20260905234112 | 92 | 130 | 3.5 | 9.6 | 0.00 | 0.00 | 0.00 | 61 | 1012.2 |
| 20260905233611 | 92 | 149 | 3.5 | 8.7 | 0.00 | 0.00 | 0.00 | 61 | 1012.2 |
| 20260905233111 | 92 | 156 | 3.5 | 8.7 | 0.00 | 0.00 | 0.00 | 61 | 1012.2 |
| 20260905232611 | 92 | 123 | 5.2 | 10.4 | 0.00 | 0.00 | 0.00 | 60 | 1012.2 |
| 20260905231109 | 92 | 178 | 5.2 | 9.6 | 0.00 | 0.00 | 0.00 | 60 | 1012.3 |
| 20260905230610 | 92 | 129 | 5.2 | 9.6 | 0.00 | 0.00 | 0.00 | 60 | 1012.2 |
| 20260905230108 | 93 | 139 | 5.2 | 7.8 | 0.00 | 0.00 | 0.00 | 58 | 1012.2 |
| 20260905225605 | 93 | 209 | 2.6 | 9.6 | 0.00 | 0.00 | 0.00 | 57 | 1012.3 |
| 20260905225104 | 93 | 162 | 2.6 | 9.6 | 0.00 | 0.00 | 0.00 | 58 | 1012.2 |
| 20260905224602 | 93 | 139 | 2.6 | 9.6 | 0.00 | 0.00 | 0.00 | 58 | 1012.2 |
| 20260905224104 | 93 | 205 | 3.5 | 9.6 | 0.00 | 0.00 | 0.00 | 57 | 1012.2 |
| 20260905223601 | 93 | 237 | 4.3 | 8.7 | 0.00 | 0.00 | 0.00 | 56 | 1012.2 |
| 20260905223101 | 93 | 173 | 5.2 | 8.7 | 0.00 | 0.00 | 0.00 | 57 | 1012.2 |
| 20260905222601 | 93 | 184 | 3.5 | 8.7 | 0.00 | 0.00 | 0.00 | 57 | 1012.1 |
| 20260905222101 | 93 | 208 | 3.5 | 11.3 | 0.00 | 0.00 | 0.00 | 58 | 1012.0 |
| 20260905221600 | 93 | 151 | 5.2 | 11.3 | 0.00 | 0.00 | 0.00 | 57 | 1011.9 |
| 20260905221101 | 93 | 173 | 5.2 | 8.7 | 0.00 | 0.00 | 0.00 | 57 | 1011.8 |
| 20260905220600 | 92 | 137 | 2.6 | 8.7 | 0.00 | 0.00 | 0.00 | 59 | 1011.8 |
| 20260905220100 | 92 | 144 | 5.2 | 10.4 | 0.00 | 0.00 | 0.00 | 58 | 1011.8 |
| 20260905215600 | 92 | 163 | 4.3 | 14.8 | 0.00 | 0.00 | 0.00 | 58 | 1011.7 |
| 20260905215100 | 92 | 130 | 7.8 | 14.8 | 0.00 | 0.00 | 0.00 | 56 | 1011.8 |
| 20260905214600 | 92 | 132 | 6.1 | 11.3 | 0.00 | 0.00 | 0.00 | 56 | 1011.8 |
| 20260905214101 | 93 | 141 | 4.3 | 11.3 | 0.00 | 0.00 | 0.00 | 57 | 1011.9 |
| 20260905213600 | 92 | 144 | 4.3 | 11.3 | 0.00 | 0.00 | 0.00 | 58 | 1012.0 |
| 20260905213058 | 92 | 113 | 3.5 | 11.3 | 0.00 | 0.00 | 0.00 | 57 | 1012.2 |
| 20260905212558 | 92 | 155 | 4.3 | 12.2 | 0.00 | 0.00 | 0.00 | 56 | 1012.2 |
| 20260905212058 | 92 | 184 | 4.3 | 12.2 | 0.00 | 0.00 | 0.00 | 55 | 1012.2 |
| 20260905211558 | 92 | 130 | 6.1 | 11.3 | 0.00 | 0.00 | 0.00 | 55 | 1012.2 |
| 20260905210057 | 91 | 128 | 7.0 | 13.9 | 0.00 | 0.00 | 0.00 | 56 | 1012.5 |
| 20260905205057 | 91 | 131 | 7.0 | 11.3 | 0.00 | 0.00 | 0.00 | 56 | 1012.6 |
| 20260905204058 | 91 | 144 | 7.8 | 12.2 | 0.00 | 0.00 | 0.00 | 57 | 1012.8 |
| 20260905203556 | 91 | 133 | 8.7 | 12.2 | 0.00 | 0.00 | 0.00 | 56 | 1012.9 |
| 20260905203056 | 91 | 212 | 4.3 | 11.3 | 0.00 | 0.00 | 0.00 | 58 | 1013.0 |
| 20260905202556 | 90 | 40 | 6.1 | 12.2 | 0.00 | 0.00 | 0.00 | 57 | 1013.3 |
| 20260905202055 | 90 | 99 | 7.0 | 13.0 | 0.00 | 0.00 | 0.00 | 57 | 1013.3 |
| 20260905201556 | 90 | 123 | 7.0 | 13.0 | 0.00 | 0.00 | 0.00 | 56 | 1013.4 |
| 20260905201055 | 90 | 132 | 5.2 | 13.0 | 0.00 | 0.00 | 0.00 | 58 | 1013.6 |
| 20260905200055 | 90 | 133 | 7.0 | 13.9 | 0.00 | 0.00 | 0.00 | 58 | 1014.0 |
| 20260905195555 | 90 | 137 | 5.2 | 13.9 | 0.00 | 0.00 | 0.00 | 58 | 1014.2 |
| 20260905194554 | 90 | 128 | 5.2 | 9.6 | 0.00 | 0.00 | 0.00 | 58 | 1014.5 |
| 20260905194055 | 90 | 51 | 3.5 | 10.4 | 0.00 | 0.00 | 0.00 | 58 | 1014.7 |
| 20260905193554 | 90 | 123 | 5.2 | 10.4 | 0.00 | 0.00 | 0.00 | 59 | 1014.6 |
| 20260905193054 | 89 | 133 | 6.1 | 11.3 | 0.00 | 0.00 | 0.00 | 58 | 1014.7 |
| 20260905192554 | 89 | 38 | 5.2 | 11.3 | 0.00 | 0.00 | 0.00 | 56 | 1014.6 |
| 20260905192053 | 89 | 98 | 5.2 | 11.3 | 0.00 | 0.00 | 0.00 | 58 | 1014.5 |
| 20260905191554 | 89 | 110 | 5.2 | 10.4 | 0.00 | 0.00 | 0.00 | 59 | 1014.6 |
| 20260905191054 | 89 | 93 | 6.1 | 12.2 | 0.00 | 0.00 | 0.00 | 57 | 1014.7 |
| 20260905190553 | 89 | 80 | 5.2 | 13.9 | 0.00 | 0.00 | 0.00 | 58 | 1014.8 |
| 20260905190053 | 89 | 92 | 9.6 | 13.9 | 0.00 | 0.00 | 0.00 | 58 | 1014.9 |
| 20260905185553 | 89 | 131 | 2.6 | 13.0 | 0.00 | 0.00 | 0.00 | 63 | 1015.1 |
| 20260905185051 | 89 | 123 | 6.1 | 13.0 | 0.00 | 0.00 | 0.00 | 62 | 1015.3 |
| 20260905184551 | 88 | 124 | 7.8 | 13.0 | 0.00 | 0.00 | 0.00 | 63 | 1015.6 |
| 20260905183548 | 88 | 51 | 5.2 | 13.9 | 0.00 | 0.00 | 0.00 | 64 | 1015.6 |
| 20260905183048 | 88 | 27 | 5.2 | 12.2 | 0.00 | 0.00 | 0.00 | 66 | 1015.8 |
| 20260905182549 | 88 | 160 | 3.5 | 13.0 | 0.00 | 0.00 | 0.00 | 69 | 1015.8 |
| 20260905182049 | 88 | 117 | 7.8 | 18.2 | 0.00 | 0.00 | 0.00 | 67 | 1015.7 |
| 20260905181549 | 88 | 129 | 5.2 | 18.2 | 0.00 | 0.00 | 0.00 | 67 | 1015.8 |
| 20260905181048 | 88 | 341 | 4.3 | 11.3 | 0.00 | 0.00 | 0.00 | 66 | 1016.0 |
| 20260905180548 | 88 | 21 | 6.1 | 13.9 | 0.00 | 0.00 | 0.00 | 67 | 1016.0 |
| 20260905180049 | 88 | 142 | 4.3 | 13.9 | 0.00 | 0.00 | 0.00 | 68 | 1015.9 |
| 20260905175548 | 88 | 105 | 4.3 | 13.0 | 0.00 | 0.00 | 0.00 | 70 | 1015.9 |
| 20260905175048 | 87 | 344 | 5.2 | 13.0 | 0.00 | 0.00 | 0.00 | 69 | 1015.8 |
| 20260905174548 | 87 | 15 | 3.5 | 10.4 | 0.00 | 0.00 | 0.00 | 70 | 1015.8 |
| 20260905174049 | 87 | 110 | 5.2 | 10.4 | 0.00 | 0.00 | 0.00 | 72 | 1015.8 |
| 20260905173547 | 86 | 123 | 4.3 | 15.6 | 0.00 | 0.00 | 0.00 | 72 | 1015.9 |
| 20260905173047 | 86 | 347 | 5.2 | 15.6 | 0.00 | 0.00 | 0.00 | 70 | 1015.8 |
| 20260905172547 | 86 | 319 | 6.1 | 13.9 | 0.00 | 0.00 | 0.00 | 70 | 1015.8 |
| 20260905172047 | 86 | 34 | 4.3 | 14.8 | 0.00 | 0.00 | 0.00 | 71 | 1016.0 |
| 20260905171546 | 87 | 23 | 4.3 | 14.8 | 0.00 | 0.00 | 0.00 | 70 | 1016.0 |
| 20260905171046 | 87 | 80 | 3.5 | 10.4 | 0.00 | 0.00 | 0.00 | 71 | 1015.9 |
| 20260905170546 | 87 | 109 | 3.5 | 10.4 | 0.00 | 0.00 | 0.00 | 70 | 1016.1 |
| 20260905170046 | 87 | 13 | 1.7 | 12.2 | 0.00 | 0.00 | 0.00 | 73 | 1015.9 |
| 20260905165546 | 86 | 26 | 6.1 | 12.2 | 0.00 | 0.00 | 0.00 | 71 | 1015.9 |
| 20260905165046 | 87 | 9 | 7.0 | 11.3 | 0.00 | 0.00 | 0.00 | 69 | 1016.1 |
| 20260905163545 | 86 | 24 | 3.5 | 9.6 | 0.00 | 0.00 | 0.00 | 70 | 1016.1 |
| 20260905163045 | 86 | 334 | 3.5 | 9.6 | 0.00 | 0.00 | 0.00 | 70 | 1016.1 |
| 20260905162545 | 87 | 48 | 3.5 | 12.2 | 0.00 | 0.00 | 0.00 | 73 | 1016.2 |
| 20260905162045 | 87 | 11 | 6.1 | 12.2 | 0.00 | 0.00 | 0.00 | 72 | 1016.1 |
| 20260905161544 | 87 | 36 | 3.5 | 9.6 | 0.00 | 0.00 | 0.00 | 71 | 1016.1 |
| 20260905161045 | 88 | 316 | 2.6 | 14.8 | 0.00 | 0.00 | 0.00 | 73 | 1016.1 |
| 20260905160545 | 88 | 13 | 8.7 | 14.8 | 0.00 | 0.00 | 0.00 | 72 | 1016.2 |
| 20260905160044 | 88 | 334 | 4.3 | 7.8 | 0.00 | 0.00 | 0.00 | 70 | 1015.9 |
| 20260905154545 | 88 | 46 | 3.5 | 5.2 | 0.00 | 0.00 | 0.00 | 69 | 1015.5 |
| 20260905153543 | 88 | 34 | 2.6 | 7.8 | 0.00 | 0.00 | 0.00 | 70 | 1015.5 |
| 20260905153044 | 88 | 319 | 3.5 | 7.8 | 0.00 | 0.00 | 0.00 | 72 | 1015.6 |
| 20260905152543 | 87 | 344 | 3.5 | 6.1 | 0.00 | 0.00 | 0.00 | 73 | 1015.5 |
| 20260905152043 | 87 | 13 | 2.6 | 4.3 | 0.00 | 0.00 | 0.00 | 71 | 1015.5 |
| 20260905151543 | 87 | 44 | 0.9 | 2.6 | 0.00 | 0.00 | 0.00 | 74 | 1015.3 |
| 20260905151043 | 86 | 340 | 0.9 | 2.6 | 0.00 | 0.00 | 0.00 | 72 | 1015.2 |
| 20260905150543 | 86 | 34 | 1.7 | 2.6 | 0.00 | 0.00 | 0.00 | 70 | 1015.0 |
| 20260905150042 | 86 | 123 | 0.9 | 2.6 | 0.00 | 0.00 | 0.00 | 69 | 1015.0 |
| 20260905145542 | 85 | 9 | 0.9 | 2.6 | 0.00 | 0.00 | 0.00 | 70 | 1015.0 |
| 20260905145042 | 85 | 265 | 0.0 | 1.7 | 0.00 | 0.00 | 0.00 | 70 | 1014.9 |
| 20260905144543 | 85 | 178 | 0.9 | 2.6 | 0.00 | 0.00 | 0.00 | 71 | 1014.8 |
| 20260905144041 | 85 | 137 | 0.0 | 3.5 | 0.00 | 0.00 | 0.00 | 73 | 1014.7 |
| 20260905143041 | 85 | 346 | 1.7 | 2.6 | 0.00 | 0.00 | 0.00 | 71 | 1014.7 |
| 20260905142540 | 85 | 9 | 0.0 | 3.5 | 0.00 | 0.00 | 0.00 | 73 | 1014.5 |
| 20260905141535 | 84 | 178 | 1.7 | 4.3 | 0.00 | 0.00 | 0.00 | 74 | 1014.2 |
| 20260905140536 | 82 | 129 | 1.7 | 4.3 | 0.00 | 0.00 | 0.00 | 81 | 1014.4 |
| 20260905140035 | 80 | 76 | 2.6 | 4.3 | 0.00 | 0.00 | 0.00 | 84 | 1014.1 |
| 20260905135535 | 79 | 193 | 1.7 | 5.2 | 0.00 | 0.00 | 0.00 | 86 | 1013.8 |
| 20260905135034 | 78 | 164 | 1.7 | 5.2 | 0.00 | 0.00 | 0.00 | 88 | 1013.8 |
| 20260905134536 | 78 | 131 | 1.7 | 3.5 | 0.00 | 0.00 | 0.00 | 89 | 1013.9 |
| 20260905134034 | 77 | 178 | 1.7 | 2.6 | 0.00 | 0.00 | 0.00 | 89 | 1013.9 |
| 20260905133534 | 77 | 178 | 1.7 | 2.6 | 0.00 | 0.00 | 0.00 | 90 | 1014.2 |
| 20260905133034 | 76 | 205 | 0.9 | 1.7 | 0.00 | 0.00 | 0.00 | 90 | 1014.2 |
| 20260905132533 | 75 | 239 | 0.0 | 1.7 | 0.00 | 0.00 | 0.00 | 90 | 1014.3 |
| 20260905132033 | 74 | 265 | 0.0 | 1.7 | 0.00 | 0.00 | 0.00 | 90 | 1014.2 |
| 20260905131022 | 73 | 9 | 0.9 | 1.7 | 0.00 | 0.00 | 0.00 | 90 | 1013.8 |
| 20260905130521 | 73 | 309 | 0.0 | 1.7 | 0.00 | 0.00 | 0.00 | 90 | 1013.7 |
| 20260905130021 | 73 | 212 | 0.9 | 1.7 | 0.00 | 0.00 | 0.00 | 90 | 1013.7 |
| 20260905125520 | 73 | 221 | 0.9 | 0.9 | 0.00 | 0.00 | 0.00 | 90 | 1013.7 |
| 20260905124520 | 72 | 9 | 0.0 | 0.9 | 0.00 | 0.00 | 0.00 | 90 | 1013.6 |
| 20260905124020 | 72 | 265 | 0.0 | 0.9 | 0.00 | 0.00 | 0.00 | 90 | 1013.4 |
| 20260905123520 | 72 | 221 | 0.0 | 0.9 | 0.00 | 0.00 | 0.00 | 89 | 1013.4 |
| 20260905123021 | 73 | 221 | 0.0 | 0.9 | 0.00 | 0.00 | 0.00 | 89 | 1013.3 |
| 20260905122019 | 72 | 205 | 0.0 | 1.7 | 0.00 | 0.00 | 0.00 | 89 | 1013.1 |
| 20260905121514 | 72 | 51 | 0.9 | 1.7 | 0.00 | 0.00 | 0.00 | 89 | 1013.0 |
| 20260905121013 | 72 | 221 | 0.0 | 1.7 | 0.00 | 0.00 | 0.00 | 89 | 1012.8 |
| 20260905120003 | 73 | 34 | 0.0 | 1.7 | 0.00 | 0.00 | 0.00 | 89 | 1012.7 |
| 20260905114958 | 73 | 153 | 0.9 | 1.7 | 0.00 | 0.00 | 0.00 | 90 | 1012.4 |
| 20260905114458 | 73 | 212 | 0.9 | 1.7 | 0.00 | 0.00 | 0.00 | 90 | 1012.4 |
| 20260905113958 | 73 | 178 | 0.9 | 1.7 | 0.00 | 0.00 | 0.00 | 90 | 1012.7 |
| 20260905113500 | 73 | 51 | 0.0 | 1.7 | 0.00 | 0.00 | 0.00 | 90 | 1012.7 |
| 20260905112950 | 72 | 93 | 0.0 | 0.9 | 0.00 | 0.00 | 0.00 | 90 | 1012.8 |
| 20260905111947 | 72 | 108 | 0.0 | 1.7 | 0.00 | 0.00 | 0.00 | 90 | 1012.7 |
| 20260905111447 | 72 | 93 | 0.0 | 1.7 | 0.00 | 0.00 | 0.00 | 90 | 1012.7 |
| 20260905110948 | 72 | 146 | 0.0 | 1.7 | 0.00 | 0.00 | 0.00 | 90 | 1012.6 |
| 20260905110447 | 73 | 111 | 0.0 | 1.7 | 0.00 | 0.00 | 0.00 | 90 | 1012.6 |
| 20260905105947 | 73 | 108 | 0.9 | 1.7 | 0.00 | 0.00 | 0.00 | 90 | 1012.5 |
| 20260905105447 | 72 | 146 | 0.9 | 2.6 | 0.00 | 0.00 | 0.00 | 90 | 1012.4 |
| 20260905104947 | 73 | 188 | 0.9 | 2.6 | 0.00 | 0.00 | 0.00 | 90 | 1012.4 |
| 20260905104447 | 73 | 178 | 0.9 | 1.7 | 0.00 | 0.00 | 0.00 | 90 | 1012.4 |
| 20260905103447 | 73 | 178 | 0.9 | 1.7 | 0.00 | 0.00 | 0.00 | 90 | 1012.5 |
| 20260905102946 | 73 | 196 | 0.9 | 1.7 | 0.00 | 0.00 | 0.00 | 90 | 1012.5 |
| 20260905102447 | 73 | 93 | 0.9 | 1.7 | 0.00 | 0.00 | 0.00 | 90 | 1012.4 |
| 20260905101936 | 73 | 178 | 0.0 | 1.7 | 0.00 | 0.00 | 0.00 | 90 | 1012.4 |
| 20260905100935 | 73 | 137 | 0.9 | 2.6 | 0.00 | 0.00 | 0.00 | 90 | 1012.4 |
| 20260905100437 | 73 | 106 | 0.9 | 1.7 | 0.00 | 0.00 | 0.00 | 90 | 1012.4 |
| 20260905095934 | 73 | 196 | 0.9 | 1.7 | 0.00 | 0.00 | 0.00 | 90 | 1012.3 |
| 20260905094935 | 73 | 108 | 0.0 | 1.7 | 0.00 | 0.00 | 0.00 | 90 | 1012.2 |
| 20260905094435 | 73 | 137 | 0.9 | 1.7 | 0.00 | 0.00 | 0.00 | 90 | 1012.1 |
| 20260905093935 | 73 | 126 | 0.0 | 1.7 | 0.00 | 0.00 | 0.00 | 90 | 1012.2 |
| 20260905092935 | 74 | 93 | 0.9 | 1.7 | 0.00 | 0.00 | 0.00 | 90 | 1012.1 |
| 20260905092434 | 73 | 119 | 0.0 | 1.7 | 0.00 | 0.00 | 0.00 | 90 | 1012.1 |
| 20260905091936 | 73 | 9 | 0.0 | 1.7 | 0.00 | 0.00 | 0.00 | 90 | 1012.1 |
| 20260905091434 | 73 | 9 | 0.0 | 1.7 | 0.00 | 0.00 | 0.00 | 90 | 1012.1 |
| 20260905090934 | 73 | 137 | 0.0 | 1.7 | 0.00 | 0.00 | 0.00 | 90 | 1012.1 |
| 20260905090434 | 73 | 119 | 0.0 | 0.9 | 0.00 | 0.00 | 0.00 | 90 | 1012.1 |
| 20260905085934 | 73 | 34 | 0.0 | 0.9 | 0.00 | 0.00 | 0.00 | 90 | 1012.2 |
| 20260905085424 | 73 | 93 | 0.0 | 0.9 | 0.00 | 0.00 | 0.00 | 90 | 1012.3 |
| 20260905084923 | 73 | 51 | 0.0 | 0.9 | 0.00 | 0.00 | 0.00 | 90 | 1012.2 |
| 20260905084425 | 73 | 221 | 0.0 | 1.7 | 0.00 | 0.00 | 0.00 | 90 | 1012.4 |
| 20260905083919 | 74 | 196 | 0.0 | 0.9 | 0.00 | 0.00 | 0.00 | 90 | 1012.5 |
| 20260905083418 | 74 | 221 | 0.0 | 0.9 | 0.00 | 0.00 | 0.00 | 90 | 1012.5 |
| 20260905082918 | 74 | 178 | 0.0 | 0.9 | 0.00 | 0.00 | 0.00 | 90 | 1012.5 |
| 20260905082417 | 74 | 137 | 0.0 | 0.9 | 0.00 | 0.00 | 0.00 | 90 | 1012.5 |
| 20260905081918 | 74 | 51 | 0.0 | 0.9 | 0.00 | 0.00 | 0.00 | 90 | 1012.5 |
| 20260905081418 | 74 | 51 | 0.0 | 0.9 | 0.00 | 0.00 | 0.00 | 90 | 1012.6 |
| 20260905080917 | 74 | 51 | 0.0 | 0.9 | 0.00 | 0.00 | 0.00 | 90 | 1012.6 |
| 20260905080418 | 74 | 51 | 0.0 | 1.7 | 0.00 | 0.00 | 0.00 | 90 | 1012.7 |
| 20260905075419 | 74 | 178 | 0.9 | 1.7 | 0.00 | 0.00 | 0.00 | 90 | 1012.7 |
| 20260905074917 | 75 | 193 | 0.9 | 0.9 | 0.00 | 0.00 | 0.00 | 89 | 1012.8 |
| 20260905074417 | 75 | 178 | 0.0 | 1.7 | 0.00 | 0.00 | 0.00 | 90 | 1012.8 |
| 20260905073917 | 75 | 178 | 0.0 | 1.7 | 0.00 | 0.00 | 0.00 | 90 | 1012.8 |
| 20260905073417 | 75 | 51 | 0.0 | 0.9 | 0.00 | 0.00 | 0.00 | 89 | 1012.9 |
| 20260905072913 | 75 | 221 | 0.0 | 0.9 | 0.00 | 0.00 | 0.00 | 89 | 1013.0 |
| 20260905072412 | 75 | 205 | 0.0 | 0.9 | 0.00 | 0.00 | 0.00 | 89 | 1013.0 |
| 20260905071912 | 76 | 221 | 0.0 | 0.9 | 0.00 | 0.00 | 0.00 | 89 | 1013.0 |
| 20260905071407 | 76 | 93 | 0.0 | 1.7 | 0.00 | 0.00 | 0.00 | 90 | 1013.0 |
| 20260905070907 | 76 | 212 | 0.0 | 1.7 | 0.00 | 0.00 | 0.00 | 90 | 1013.0 |
| 20260905070407 | 76 | 30 | 0.0 | 1.7 | 0.00 | 0.00 | 0.00 | 89 | 1013.0 |
| 20260905065909 | 76 | 178 | 0.0 | 0.9 | 0.00 | 0.00 | 0.00 | 89 | 1013.1 |
| 20260905065407 | 76 | 221 | 0.0 | 0.9 | 0.00 | 0.00 | 0.00 | 89 | 1013.0 |
| 20260905064907 | 76 | 221 | 0.0 | 1.7 | 0.00 | 0.00 | 0.00 | 89 | 1013.1 |
| 20260905064407 | 76 | 178 | 0.9 | 1.7 | 0.00 | 0.00 | 0.00 | 89 | 1013.1 |
| 20260905063906 | 76 | 190 | 0.9 | 1.7 | 0.00 | 0.00 | 0.00 | 89 | 1013.3 |
| 20260905063406 | 76 | 217 | 0.0 | 1.7 | 0.00 | 0.00 | 0.00 | 89 | 1013.1 |
| 20260905062907 | 76 | 298 | 0.0 | 1.7 | 0.00 | 0.00 | 0.00 | 89 | 1013.3 |
| 20260905062406 | 76 | 247 | 0.9 | 1.7 | 0.00 | 0.00 | 0.00 | 89 | 1013.3 |
| 20260905061906 | 77 | 51 | 0.0 | 1.7 | 0.00 | 0.00 | 0.00 | 89 | 1013.3 |
| 20260905060906 | 77 | 265 | 0.0 | 0.9 | 0.00 | 0.00 | 0.00 | 89 | 1013.3 |
| 20260905055908 | 77 | 9 | 0.0 | 0.9 | 0.00 | 0.00 | 0.00 | 89 | 1013.3 |
| 20260905055400 | 77 | 265 | 0.0 | 0.9 | 0.00 | 0.00 | 0.00 | 88 | 1013.3 |
| 20260905054355 | 78 | 137 | 0.9 | 1.7 | 0.00 | 0.00 | 0.00 | 89 | 1013.3 |
| 20260905053856 | 78 | 51 | 0.0 | 1.7 | 0.00 | 0.00 | 0.00 | 89 | 1013.1 |
| 20260905053355 | 77 | 26 | 0.9 | 1.7 | 0.00 | 0.00 | 0.00 | 88 | 1013.1 |
| 20260905052855 | 78 | 309 | 0.0 | 0.9 | 0.00 | 0.00 | 0.00 | 88 | 1013.1 |
| 20260905052354 | 78 | 309 | 0.0 | 0.9 | 0.00 | 0.00 | 0.00 | 88 | 1013.0 |